Skip Page Navigation
NASA JPL Caltech
NASA Logo - Jet Propulsion Laboratory + View the NASA Portal
+ Center for Near-Earth Object Studies
JPL Home Earth Solar System Stars & Galaxies Technology
JPL Solar System Dynamics
BODIES ORBITS EPHEMERIDES TOOLS PHYSICAL DATA DISCOVERY FAQ SITE MAP
JPL Small-Body Database Browser
Search: [ help ]  
67092 (2000 AA53)
Classification: Main-belt Asteroid          SPK-ID: 2067092
Ephemeris | Orbit Diagram | Orbital Elements | Mission Design | Physical Parameters | Discovery Circumstances ]

[ show orbit diagram ]
Orbital Elements at Epoch 2459200.5 (2020-Dec-17.0) TDB
Reference: JPL 26 (heliocentric ecliptic J2000)
 Element Value Uncertainty (1-sigma)   Units 
e .2528209136623458 7.6169e-08  
a 2.520688163996321 6.0166e-09 au
q 1.88340547931691 1.9283e-07 au
i 2.762665214309963 3.3373e-06 deg
node 338.2631955199253 0.00011872 deg
peri 54.70435398231405 0.00011892 deg
M 106.8693599461501 6.1172e-06 deg
tp 2458766.561865453007
(2019-Oct-10.06186545)
2.4694e-05 TDB
period 1461.763488764538
4.00
5.2336e-06
1.433e-08
d
yr
n .24627787105578 8.8175e-10 deg/d
Q 3.157970848675732 7.5377e-09 au
  Orbit Determination Parameters
   # obs. used (total)      1208  
   data-arc span      13649 days (37.37 yr)  
   first obs. used      1983-11-08  
   last obs. used      2021-03-22  
   planetary ephem.      DE441  
   SB-pert. ephem.      SB441-N16  
   condition code      0  
   norm. resid. RMS      .45534  
   source      ORB  
   producer      Otto Matic  
   solution date      2021-May-04 07:03:14  

Additional Information
 Earth MOID = .889987 au 
 Jupiter MOID = 2.29677 au 
 T_jup = 3.410 
[ show covariance matrix ]

Ephemeris | Orbit Diagram | Orbital Elements | Mission Design | Physical Parameters | Discovery Circumstances ]

Physical Parameter Table
Parameter Symbol Value Units Sigma Reference Notes
absolute magnitude H 15.72   n/a E2021B10  

67092 (2000 AA53)          Discovered 2000-Jan-04 by LINEAR at Socorro
Reference: 20030910/Numbers.arcLast Updated: 2004-04-19

Alternate Designations
 2000 AA53 = 1983 VU2 
Ephemeris | Orbit Diagram | Orbital Elements | Mission Design | Physical Parameters | Discovery Circumstances ]
ABOUT SSD CREDITS/AWARDS PRIVACY/COPYRIGHT GLOSSARY LINKS
FirstGov 2021-Jun-23 22:27 UT
(server date/time)  
NASA Home Page
Site Manager:   Ryan S. Park
Webmaster  Alan B. Chamberlin